Weather Roundup
Issued by NWS Corpus Christi, TX

Home | Current Version | Previous Version | Text Only | Print | Product List | Glossary On
Versions: 1 2 3 4 5 6 7 8 9 10 11 12 13 14 15 16 17 18 19 20 21 22 23 24 25 26 27 28 29 30 31 32 33 34 35 36 37 38 39 40 41 42 43 44 45 46 47 48 49 50
000
ASUS44 KCRP 172310
HRRCRP

SOUTH TEXAS REGIONAL WEATHER ROUNDUP
NATIONAL WEATHER SERVICE CORPUS CHRISTI TX
500 PM CST WED DEC 17 2014


TXZ229>244-180000-
...CORPUS CHRISTI AREA OBSERVATIONS...

CITY           SKY/WX    TMP DP  RH WIND       PRES   REMARKS
CORPUS CHRISTI MOCLDY    72  64  76 SE14      30.00R
NAS CORPUS CHR MOCLDY    70  66  87 SE15      30.00S
ROCKPORT       MOCLDY    70  64  81 SE9       30.01S
KINGSVILLE NAS CLOUDY    73  66  78 SE12      29.98R
ALICE          MOCLDY    75  63  66 SE13      29.97R
FALFURRIAS     CLOUDY    76  60  58 SE12      29.96S
$$

...VICTORIA AREA OBSERVATIONS...

CITY           SKY/WX    TMP DP  RH WIND       PRES   REMARKS
VICTORIA       MOCLDY    69  63  81 SE13      30.03F
BEEVILLE       CLOUDY    71  64  77 SE14      29.98F
PLEASANTON     CLOUDY    62  55  77 N5        30.01F
SAN ANTONIO    LGT RAIN  54  50  86 NE6       30.03S FOG
$$

...LAREDO AREA OBSERVATIONS...

CITY           SKY/WX    TMP DP  RH WIND       PRES   REMARKS
LAREDO         NOT AVBL
COTULLA        CLOUDY    57  53  86 N7        30.01S
DEL RIO        CLOUDY    54  48  80 E8        30.02R
MCALLEN        CLOUDY    74  65  73 SE17      29.97S
HEBBRONVILLE   CLOUDY    73  61  66 SE10G17   29.97F
$$

...OTHER TEXAS OBSERVATIONS...

CITY           SKY/WX    TMP DP  RH WIND       PRES   REMARKS
BROWNSVILLE    CLOUDY    73  67  81 SE15G23   29.99R
HOUSTON        CLOUDY    62  53  72 E9        30.10S
COL. STATION   LGT RAIN  53  48  83 SE6       30.05F
AUSTIN         CLOUDY    52  50  93 NE5       30.06R
WACO           CLOUDY    48  43  82 SE3       30.09R
FORT WORTH     LGT RAIN  43  40  89 NE6       30.12S FOG
WICHITA FALLS  DRIZZLE   40  38  93 E9        30.10R
LUBBOCK        MOCLDY    51  39  63 E14       29.94R
EL PASO        MOSUNNY   59  30  33 W20G29    30.01R
$$

...MARINE OBSERVATIONS...

STATION/POSITION TIME  SKY/WX   TEMP    WIND        PRES    VSBY  WAVE   SWELL
                                AIR SEA DIR/SP/G                  HT/PER HT/PER
                 (UTC)          (F)     (DEG/KT/KT) (MB)    (MI)  (FT/S) (FT/S)
PORT ARANSAS     2300            67 65  120/  9/  9 1016.7F
BUOY 90 E PORT A 2300            72 72  150/ 14/ 16 1017.8F         4/ 5
BUOY 45 SE BAFFI 2300            72 72  150/ 14/ 17 1015.7F         4/ 6
BUOY 200 E PT IS 2300            74 73  150/ 14/ 16 1018.1F         3/ 4
BUOY 15 E GALVES 2300            63 65  100/ 19/ 21 1018.3F         3/ 4
$$



USA.gov is the U.S. government's official web portal to all federal, state and local government web resources and services.